Location: *
(51.0333°S, 178.4667°E)
Time: 14:25:49
(UTC+00:00)

CZ-4 R/B - Pass Details

Date: 24 February 2020
Orbit: 531 x 599 km, 97.8° (Epoch: 31 March)

Event Time Altitude Azimuth Distance (km) Brightness Sun altitude
Rises 09:11:16 0° 182° (S) 2,822 5.6 -17.0°
Reaches altitude 10° 09:14:27 10° 208° (SSW) 1,929 5.2 -17.4°
Maximum altitude 09:16:24 13° 236° (SW) 1,736 5.0 -17.6°
Drops below altitude 10° 09:18:21 10° 264° (W) 1,937 4.9 -17.9°
Sets 09:21:34 0° 291° (WNW) 2,842 5.3 -18.2°
